Regional Weather Roundup
Issued by NWS

Home | Current Version | Previous Version | Graphics & Text | Print | Product List | Glossary On
Versions: 1 2 3 4 5 6 7 8 9 10 11 12 13 14 15 16 17 18 19 20 21 22 23 24 25 26 27 28 29 30 31 32 33 34 35 36 37 38 39 40 41 42 43 44 45 46 47 48 49 50
000
ASUS43 KMPX 290810
RWRMN
WEATHER ROUNDUP FOR MINNESOTA
NATIONAL WEATHER SERVICE TWIN CITIES/CHANHASSEN MN
200 AM CST THU JAN 29 2015


NOTE: "FAIR" INDICATES FEW OR NO CLOUDS BELOW 12,000 FEET WITH NO
SIGNIFICANT WEATHER AND/OR OBSTRUCTIONS TO VISIBILITY. N/A MEANS
CURRENT SKY AND/OR WEATHER CONDITIONS ARE NOT AVAILABLE.

MNZ060>063-068>070-290900-
   Twin Cities Metro

CITY           SKY/WX    TMP DP  RH WIND       PRES   REMARKS
TWIN CITIES    CLOUDY    31  28  89 NW10      29.90R FOG     WCI  22
ST PAUL        CLOUDY    31  29  92 NW12      29.90R FOG     WCI  22
CRYSTAL        CLOUDY    32  29  88 NW9       29.89R FOG     WCI  24
BLAINE         CLOUDY    32  32 100 NW8       29.89R FOG     WCI  25
LAKEVILLE      CLOUDY    28  28 100 NW9       29.89R FOG     WCI  20
EDEN PRAIRIE   CLOUDY    32  29  88 NW12      29.89R FOG     WCI  23
SOUTH ST PAUL  CLOUDY    32  30  92 NW7       29.89R FOG     WCI  26
LAKE ELMO      CLOUDY    32  30  93 NW10      29.89R FOG     WCI  24
$$
MNZ001>005-007-008-013>017-022>024-027-028-290900-
   Northwest Minnesota

CITY           SKY/WX    TMP DP  RH WIND       PRES   REMARKS
BEMIDJI        CLOUDY    26  25  96 NW17G25   29.99R FOG     WCI  13
HALLOCK        CLOUDY    16  12  86 NW24G32   30.19R WCI  -3
ROSEAU         CLOUDY    19  16  86 NW16      30.08R WCI   5
WARROAD        CLOUDY    19  16  86 NW17G25   30.07R WCI   4
THIEF RVR FALL CLOUDY    18  16  93 NW21      30.11R WCI   1
CROOKSTON      CLOUDY    19  18  93 N22       30.16R WCI   3
FOSSTON        CLOUDY    18  18 100 NW17      30.08R WCI   2
DETROIT LAKES  CLOUDY    23  23 100 NW17G28   30.06R WCI   9
MOORHEAD       CLOUDY    27  27 100 NW24G30   30.14R WCI  12
PARK RAPIDS    CLOUDY    27  24  89 NW22G28   29.98R WCI  13
MAHNOMEN       CLOUDY    20  18  92 NW24      30.08R WCI   3
$$
MNZ006-009>011-018-025>026-290900-
   North Central Minnesota

CITY           SKY/WX    TMP DP  RH WIND       PRES   REMARKS
BAUDETTE       CLOUDY    24  21  88 NW24G31   30.00R WCI   8
FLAG ISLAND    CLOUDY    21  18  86 NW23      30.03R FOG     WCI   5
INTL FALLS     CLOUDY    28  22  78 NW14      29.92R WCI  17
WASKISH        CLOUDY    28  27  93 NW14G20   29.99R WCI  17
BIG FORK       CLOUDY    28  25  86 N9G22     29.93R WCI  20
LONGVILLE      CLOUDY    30  27  86 NW14G23   29.93R WCI  20
GRAND RAPIDS   CLOUDY    28  25  86 NW25G35   29.89R WCI  14
CRANE LAKE     CLOUDY    27  25  93 NW13G20   29.90R WCI  16
ORR            CLOUDY    27  21  80 NW8       29.87R WCI  18
COOK           CLOUDY    27  25  93 NW6       29.88R WCI  20
WALKER         MIX PCPN  28  27  94 NW14G22   29.96R WCI  17
$$
MNZ012-019>021-037-290900-
   Northeast Minnesota

CITY           SKY/WX    TMP DP  RH WIND       PRES   REMARKS
DULUTH         FRZ DRZL  29  27  92 NW13      29.81S FOG     WCI  19
ELY            CLOUDY    27  25  93 NW12G21   29.83R WCI  16
HIBBING        CLOUDY    30  24  78 NW24G31   29.86R WCI  16
EVELETH        CLOUDY    30  28  93 N10G17    29.86R WCI  21
DULUTH HARBOR  CLOUDY    32  28  86 W6        29.86S WCI  26
TWO HARBORS    CLOUDY    32  27  80 CALM      29.80S
SILVER BAY     CLOUDY    30  27  86 NW5       29.80R WCI  25
GRAND MARAIS     N/A     31  24  75 VRB5      29.79F WCI  26
G MARAIS ARPRT CLOUDY    25  19  80 NW13      29.74S WCI  13
$$
MNZ029>031-032-039>041-046>048-054>057-064-290900-
   West Central Minnesota

CITY           SKY/WX    TMP DP  RH WIND       PRES   REMARKS
FERGUS FALLS   CLOUDY    27  25  93 N24G40    30.10R WCI  12
WHEATON        CLOUDY    27  25  93 NW28G33   30.12R WCI  11
MORRIS         CLOUDY    30  27  86 NW29G38   30.03R WCI  15
ALEXANDRIA     CLOUDY    28  25  88 NW21G31   29.99R WCI  15
ELBOW LAKE     CLOUDY    27  25  93 NW26G35   30.05R WCI  11
WADENA         CLOUDY    25  25 100 NW16G24   30.00R FOG     WCI  12
GLENWOOD       CLOUDY    28  27  93 NW22G31   29.99R WCI  15
APPLETON       CLOUDY    32  28  86 NW31G40   30.05R WCI  17
BENSON         CLOUDY    30  27  86 N25G38    30.02R WCI  16
ORTONVILLE     CLOUDY    30  27  86 NW17G30   30.07R WCI  18
MADISON        CLOUDY    36  30  80 NW31G39   30.06R
WILLMAR        CLOUDY    32  28  86 NW24G32   29.99R WCI  19
$$
MNZ033>034-036-042>043-049>051-058-059-290900-
   Central Minnesota

CITY           SKY/WX    TMP DP  RH WIND       PRES   REMARKS
ST CLOUD       CLOUDY    33  31  92 NW13      29.91R WCI  24
SAUK CENTRE    CLOUDY    30  28  92 NW22G28   29.96R WCI  16
PAYNESVILLE    CLOUDY    29  28  96 W20G26    29.96R WCI  17
AITKIN         CLOUDY    36  28  75 NW10G22   29.89R
PINE RIVER     CLOUDY    30  28  93 NW13G23   29.97R WCI  20
BRAINERD       LGT SNOW  32  30  92 NW13      29.93R FOG     WCI  22
STAPLES        CLOUDY    28  27  93 NW17G23   29.96R WCI  16
LONG PRAIRIE   CLOUDY    28  28 100 NW23G29   29.96R WCI  14
LITTLE FALLS   CLOUDY    32  30  93 NW9G16    29.93R WCI  24
LITCHFIELD     CLOUDY    34  34 100 NW14      29.94R WCI  24
BUFFALO        CLOUDY    32  31  94 W9        29.93R FOG     WCI  24
MAPLE LAKE     CLOUDY    33  33  98 NW9       29.92R FOG     WCI  25
$$
MNZ037-044-045-052-053-290900-
   East Central Minnesota

CITY           SKY/WX    TMP DP  RH WIND       PRES   REMARKS
PRINCETON      CLOUDY    34  30  86 W8        29.90R FOG     WCI  27
MORA           CLOUDY    32  30  93 NW7       29.90R WCI  26
CAMBRIDGE      CLOUDY    34  27  75 W7        29.87S HAZE    WCI  28
RUSH CITY      CLOUDY    30  29  95 W6        29.88R WCI  24
MOOSE LAKE     CLOUDY    32  30  93 NW7       29.85R FOG     WCI  26
HINCKLEY       CLOUDY    32  30  93 NW5       29.88R FOG     WCI  27
CLOQUET        CLOUDY    30  28  93 NW12      29.83S FOG     WCI  21
MCGREGOR       CLOUDY    32  32 100 NW12      29.88R WCI  23
$$
MNZ071>073-080-081-089-090-097-098-290900-
   Southwest Minnesota

CITY           SKY/WX    TMP DP  RH WIND       PRES   REMARKS
MONTEVIDEO     CLOUDY    30  28  93 N28G36    30.03R WCI  16
GRANITE FALLS  CLOUDY    32  29  90 NW24G35   30.03R WCI  18
CANBY          CLOUDY    32  28  86 NW22G31   30.07R WCI  19
MARSHALL       CLOUDY    30  25  80 N24G36    30.04R WCI  16
REDWOOD FALLS  CLOUDY    33  29  85 NW18G29   29.99R WCI  22
OLIVIA         CLOUDY    30  30 100 NW20G26   29.97R WCI  18
PIPESTONE      CLOUDY    32  28  86 N26G38    30.02R WCI  18
WINDOM         CLOUDY    32  30  93 NW23G33   29.97R FOG     WCI  19
WORTHINGTON    CLOUDY   N/A N/A N/A NW26G36   29.99R
JACKSON        CLOUDY    32  30  93 NW32G39   29.96R WCI  17
TRACY          CLOUDY    32  31  94 NW28G35   30.01R WCI  18
SLAYTON        CLOUDY    31  29  92 NW26G39   30.00R WCI  17
$$
MNZ065>067-074>077-082>085-091>093-290900-
   South Central Minnesota

CITY           SKY/WX    TMP DP  RH WIND       PRES   REMARKS
MANKATO        CLOUDY    34  28  80 NW16      29.91S WCI  23
NEW ULM        CLOUDY    34  32  93 NW18      29.94R FOG     WCI  23
ST JAMES       CLOUDY    34  32  93 NW23G33   29.96R FOG     WCI  22
FAIRMONT       CLOUDY    34  28  80 NW20G26   29.92R WCI  22
GLENCOE        CLOUDY    34  33  97 NW13      29.92R WCI  25
FARIBAULT      CLOUDY    30  30 100 NW9       29.89S FOG     WCI  22
OWATONNA       CLOUDY    32  30  93 NW17      29.89R FOG     WCI  21
WASECA         CLOUDY    32  30  93 NW12      29.91R FOG     WCI  23
ALBERT LEA     CLOUDY    32  32 100 N16G25    29.87R FOG     WCI  21
$$
MNZ078>079-086>088-094>096-290900-
   Southeast Minnesota

CITY           SKY/WX    TMP DP  RH WIND       PRES   REMARKS
ROCHESTER      CLOUDY    30  28  92 N23       29.84R FOG     WCI  17
RED WING       CLOUDY    32  30  93 NW7       29.87R FOG     WCI  26
STANTON        CLOUDY    32  30  93 NW13      29.87R WCI  22
DODGE CENTER   CLOUDY    30  30 100 NW16      29.85R FOG     WCI  19
WINONA         CLOUDY    32  30  93 N8        29.85R WCI  25
AUSTIN         CLOUDY    30  28  93 NW17G26   29.85R FOG     WCI  18
PRESTON        CLOUDY    30  29  97 N13       29.82R FOG     WCI  20
$$
ABBREVIATIONS USED IN REMARKS
   TC - TEMPERATURES IN CELSIUS
  WCI - WIND CHILL INDEX
   HX - HEAT INDEX
  VSB - VISIBILITY
$$



USA.gov is the U.S. government's official web portal to all federal, state and local government web resources and services.